Tracking 29892 objects as of 21-Nov-2024
HD Live streaming from Space Station
objects crossing your sky now

SL-12 R/B(2)

Track SL-12 R/B(2) now!


NORAD ID: 22044
Int'l Code: 1992-043D
Perigee: 36,376.8 km
Apogee: 36,607.0 km
Inclination: 14.9 °
Period: 1,471.9 minutes
Semi major axis: 42862 km
RCS: 2.411 m2 (large)
Launch date: July 14, 1992
Source: Commonwealth of Independent States (former USSR) (CIS)
Launch site: TYURATAM MISSILE AND SPACE COMPLEX (TTMTR)

Note: This is a ROCKET BODY
Your satellite tracking list
Your tracking list is empty




NASA's NSSDC Master Catalog

Two Line Element Set (TLE):
1 22044U 92043D   24325.36161177 -.00000182  00000-0  00000-0 0  9990
2 22044  14.9133 350.6189 0026851 183.1244 350.5334  0.97831959113944
Source of the keplerian elements: AFSPC